Litchfield, MN

1:42 AM CDT on October 23, 2017 (GMT -0500)
Litchfield Municipal

Weather History for KLJF - December, 2012

Change the Weather History Date:

Saturday, December 15, 2012

  Actual Average Record
Temperature  
Mean Temperature 35 °F -  
Max Temperature 37 °F 26 °F 48 °F (1959)
Min Temperature 33 °F 10 °F -19 °F (1961)
Degree Days  
Heating Degree Days 30    
Moisture  
Dew Point 35 °F    
Average Humidity 98    
Maximum Humidity 100    
Minimum Humidity 87    
Precipitation  
Precipitation 0.00 in - - ()
Sea Level Pressure  
Sea Level Pressure 29.58 in    
Wind  
Wind Speed 8 mph (NE)    
Max Wind Speed 13 mph    
Max Gust Speed 17 mph    
Visibility 4 miles    
Events Rain , Snow    
Averages and records for this station are not official NWS values.
T = Trace of Precipitation, MM = Missing Value Source: NWS Daily Summary

Daily Weather History Graph

Daily Weather History Graph

Search for Another Location

Airport or City:

Trip Planner

Search our weather history database for the weather conditions in past years. The results will help you decide how hot, cold, wet, or windy it might be!

Date:

Astronomy

Dec. 15, 2012 Rise Set
Actual Time 7:50 AM CST 4:36 PM CST
Civil Twilight 7:16 AM CST 5:10 PM CST
Nautical Twilight 6:39 AM CST 5:47 PM CST
Astronomical Twilight 6:03 AM CST 6:23 PM CST
Moon 9:38 AM CST (12/15) 7:47 PM CST (12/15)
Length of Visible Light 9h 54m
Length of Day
8h 46m
Waxing Crescent, 8% of the Moon is Illuminated
Dec 15
Waxing Crescent
Dec 19
First Quarter
Dec 28
Full
Jan 4
Last Quarter
Jan 11
New

Hourly Weather History & Observations

Time (CST) Temp. Windchill Dew Point Humidity Pressure Visibility Wind Dir Wind Speed Gust Speed Precip Events Conditions
12:13 AM 37.4 °F 29.8 °F 33.8 °F 87% 29.73 in 10.0 mi ESE 11.5 mph - N/A   Overcast
12:33 AM 37.4 °F 29.8 °F 33.8 °F 87% 29.73 in 10.0 mi ESE 11.5 mph - N/A   Overcast
12:53 AM 37.4 °F 30.3 °F 33.8 °F 87% 29.72 in 10.0 mi ESE 10.4 mph - N/A   Overcast
1:13 AM 37.4 °F 30.3 °F 33.8 °F 87% 29.71 in 10.0 mi ESE 10.4 mph - N/A   Overcast
1:33 AM 37.4 °F 30.8 °F 33.8 °F 87% 29.70 in 10.0 mi ESE 9.2 mph - N/A   Overcast
1:53 AM 37.4 °F 30.8 °F 33.8 °F 87% 29.69 in 10.0 mi East 9.2 mph - N/A   Overcast
2:13 AM 37.4 °F 30.3 °F 33.8 °F 87% 29.68 in 10.0 mi ESE 10.4 mph - N/A   Overcast
2:33 AM 37.4 °F 30.3 °F 33.8 °F 87% 29.68 in 10.0 mi ESE 10.4 mph - N/A   Overcast
2:53 AM 37.4 °F 30.8 °F 33.8 °F 87% 29.68 in 10.0 mi ESE 9.2 mph - N/A   Light Drizzle
3:13 AM 37.4 °F 29.8 °F 33.8 °F 87% 29.69 in 10.0 mi SE 11.5 mph - N/A   Overcast
3:33 AM 37.4 °F 30.3 °F 33.8 °F 87% 29.68 in 10.0 mi ESE 10.4 mph - N/A   Overcast
3:53 AM 37.4 °F 29.3 °F 33.8 °F 87% 29.66 in 10.0 mi ESE 12.7 mph - N/A   Overcast
4:13 AM 37.4 °F 30.3 °F 33.8 °F 87% 29.65 in 7.0 mi ESE 10.4 mph - N/A   Overcast
4:33 AM 35.6 °F 28.0 °F 35.6 °F 100% 29.65 in 3.0 mi ESE 10.4 mph - N/A Rain Rain
4:53 AM 35.6 °F 29.2 °F 35.6 °F 100% 29.64 in 4.0 mi ESE 8.1 mph - N/A   Light Drizzle
5:13 AM 35.6 °F 28.6 °F 35.6 °F 100% 29.64 in 3.0 mi East 9.2 mph - N/A   Drizzle
5:33 AM 35.6 °F 29.9 °F 35.6 °F 100% 29.62 in 4.0 mi East 6.9 mph - N/A Rain Light Rain
5:53 AM 35.6 °F 29.2 °F 35.6 °F 100% 29.61 in 4.0 mi East 8.1 mph - N/A   Drizzle
6:13 AM 35.6 °F 28.6 °F 35.6 °F 100% 29.61 in 4.0 mi East 9.2 mph - N/A   Drizzle
6:33 AM 35.6 °F 28.0 °F 35.6 °F 100% 29.60 in 3.0 mi East 10.4 mph - N/A   Drizzle
6:53 AM 35.6 °F 29.2 °F 35.6 °F 100% 29.59 in 3.0 mi East 8.1 mph - N/A   Light Drizzle
7:13 AM 35.6 °F 28.6 °F 35.6 °F 100% 29.58 in 3.0 mi East 9.2 mph - N/A   Light Drizzle
7:33 AM 35.6 °F 28.0 °F 35.6 °F 100% 29.58 in 2.5 mi East 10.4 mph - N/A Rain Light Rain
7:53 AM 35.6 °F 29.2 °F 35.6 °F 100% 29.58 in 2.5 mi East 8.1 mph - N/A   Drizzle
8:13 AM 35.6 °F 28.6 °F 35.6 °F 100% 29.58 in 1.8 mi East 9.2 mph - N/A   Drizzle
8:33 AM 35.6 °F 29.2 °F 35.6 °F 100% 29.58 in 1.5 mi East 8.1 mph - N/A   Drizzle
8:53 AM 35.6 °F 29.2 °F 35.6 °F 100% 29.58 in 1.2 mi East 8.1 mph - N/A   Drizzle
9:13 AM 35.6 °F 29.2 °F 35.6 °F 100% 29.57 in 1.0 mi East 8.1 mph - N/A Rain Rain
9:33 AM 35.6 °F 29.9 °F 35.6 °F 100% 29.57 in 1.0 mi East 6.9 mph - N/A Rain Rain
9:53 AM 35.6 °F 29.9 °F 35.6 °F 100% 29.56 in 1.0 mi East 6.9 mph - N/A   Drizzle
10:13 AM 35.6 °F 29.9 °F 35.6 °F 100% 29.56 in 1.2 mi ENE 6.9 mph - N/A   Light Drizzle
10:33 AM 35.6 °F 30.7 °F 35.6 °F 100% 29.56 in 1.2 mi ENE 5.8 mph - N/A   Light Drizzle
10:53 AM 35.6 °F 31.7 °F 35.6 °F 100% 29.55 in 1.0 mi ENE 4.6 mph - N/A   Light Drizzle
11:13 AM 35.6 °F - 35.6 °F 100% 29.54 in 0.8 mi Calm Calm - N/A   Light Drizzle
11:33 AM 35.6 °F 31.7 °F 35.6 °F 100% 29.54 in 0.5 mi NE 4.6 mph - N/A   Light Drizzle
11:53 AM 35.6 °F 32.8 °F 35.6 °F 100% 29.53 in 0.5 mi NE 3.5 mph - N/A   Light Drizzle
12:13 PM 35.6 °F 31.7 °F 35.6 °F 100% 29.52 in 0.5 mi ENE 4.6 mph - N/A   Drizzle
12:33 PM 35.6 °F 32.8 °F 35.6 °F 100% 29.52 in 0.8 mi ENE 3.5 mph - N/A Rain Rain
12:53 PM 35.6 °F 31.7 °F 35.6 °F 100% 29.51 in 1.0 mi NE 4.6 mph - N/A   Light Drizzle
1:13 PM 35.6 °F - 35.6 °F 100% 29.50 in 1.2 mi Calm Calm - N/A   Light Drizzle
1:33 PM 35.6 °F 32.8 °F 35.6 °F 100% 29.50 in 0.8 mi NNE 3.5 mph - N/A   Overcast
1:53 PM 35.6 °F 31.7 °F 35.6 °F 100% 29.49 in 0.5 mi NNE 4.6 mph - N/A   Light Drizzle
2:13 PM 35.6 °F 32.8 °F 35.6 °F 100% 29.50 in 0.5 mi NNE 3.5 mph - N/A   Light Drizzle
2:33 PM 35.6 °F 31.7 °F 35.6 °F 100% 29.50 in 0.8 mi NNE 4.6 mph - N/A   Drizzle
2:53 PM 35.6 °F 32.8 °F 35.6 °F 100% 29.50 in 0.8 mi NNE 3.5 mph - N/A Rain Light Rain
3:13 PM 35.6 °F - 35.6 °F 100% 29.51 in 1.2 mi Calm Calm - N/A Rain Light Rain
3:33 PM 35.6 °F 32.8 °F 35.6 °F 100% 29.51 in 1.8 mi North 3.5 mph - N/A Rain Light Rain
3:53 PM 35.6 °F 32.8 °F 35.6 °F 100% 29.52 in 2.0 mi NNW 3.5 mph - N/A Rain Rain
4:13 PM 33.8 °F 29.6 °F 33.8 °F 100% 29.52 in 2.5 mi NNW 4.6 mph - N/A   Light Drizzle
4:33 PM 33.8 °F 29.6 °F 33.8 °F 100% 29.53 in 2.5 mi NNW 4.6 mph - N/A   Overcast
4:53 PM 33.8 °F 29.6 °F 33.8 °F 100% 29.53 in 4.0 mi NNW 4.6 mph - N/A   Overcast
5:13 PM 33.8 °F 29.6 °F 33.8 °F 100% 29.54 in 4.0 mi NW 4.6 mph - N/A Snow Light Snow
5:33 PM 33.8 °F 29.6 °F 33.8 °F 100% 29.54 in 3.0 mi NW 4.6 mph - N/A   Overcast
5:53 PM 33.8 °F 28.6 °F 33.8 °F 100% 29.54 in 2.5 mi NW 5.8 mph - N/A Snow Light Snow
6:13 PM 33.8 °F 28.6 °F 33.8 °F 100% 29.54 in 2.5 mi NW 5.8 mph - N/A Snow Light Snow
6:33 PM 33.8 °F 27.7 °F 33.8 °F 100% 29.55 in 3.0 mi NW 6.9 mph - N/A   Overcast
6:53 PM 33.8 °F 27.7 °F 33.8 °F 100% 29.55 in 3.0 mi NW 6.9 mph - N/A   Overcast
7:13 PM 33.8 °F 27.7 °F 33.8 °F 100% 29.55 in 2.5 mi NW 6.9 mph - N/A Snow Light Snow
7:33 PM 33.8 °F 27.7 °F 33.8 °F 100% 29.56 in 2.5 mi NW 6.9 mph - N/A Snow Light Snow
7:53 PM 33.8 °F 27.7 °F 33.8 °F 100% 29.56 in 2.0 mi NW 6.9 mph - N/A Snow Light Snow
8:13 PM 33.8 °F 27.0 °F 33.8 °F 100% 29.57 in 2.5 mi NW 8.1 mph - N/A Snow Light Snow
8:33 PM 33.8 °F 27.0 °F 33.8 °F 100% 29.57 in 2.5 mi WNW 8.1 mph - N/A Snow Light Snow
8:53 PM 33.8 °F 26.4 °F 33.8 °F 100% 29.57 in 1.8 mi NW 9.2 mph - N/A Snow Light Snow
9:13 PM 33.8 °F 27.0 °F 33.8 °F 100% 29.58 in - NW 8.1 mph - N/A   Overcast
9:33 PM 33.8 °F 27.0 °F 33.8 °F 100% 29.58 in - WNW 8.1 mph - N/A   Overcast
9:53 PM 33.8 °F 26.4 °F 33.8 °F 100% 29.57 in - NW 9.2 mph - N/A   Overcast
10:13 PM 33.8 °F 27.0 °F 33.8 °F 100% 29.58 in - NW 8.1 mph - N/A   Overcast
10:33 PM 33.8 °F 26.4 °F 33.8 °F 100% 29.58 in - WNW 9.2 mph - N/A   Overcast
10:53 PM 33.8 °F 25.8 °F 33.8 °F 100% 29.58 in - NW 10.4 mph - N/A   Overcast
11:13 PM 33.8 °F 26.4 °F 33.8 °F 100% 29.58 in - WNW 9.2 mph - N/A   Overcast
11:33 PM 33.8 °F 26.4 °F 33.8 °F 100% 29.58 in 2.5 mi NW 9.2 mph 17.3 mph N/A   Overcast
11:53 PM 33.8 °F 25.8 °F 33.8 °F 100% 29.58 in 2.5 mi WNW 10.4 mph - N/A   Overcast